Location: Goettingen
(51.5300°N, 9.9433°E)
Time: 19:56:36
(UTC+01:00)

ISS - Pass Details

Date: 08 December 2017
Orbit: 402 x 407 km, 51.6° (Epoch: 11 December)

Event Time Altitude Azimuth Distance (km) Brightness Sun altitude
Rises 19:09:37 0° 282° (WNW) 2,332 1.2 -26.4°
Reaches altitude 10° 19:11:43 10° 279° (W) 1,469 -0.1 -26.8°
Enters shadow 19:13:07 23° 272° (W) 926 -1.3 -27.0°
